Regional Weather Roundup
Issued by NWS Little Rock, AR

Home | Current Version | Previous Version | Text Only | Print | Product List | Glossary On
Versions: 1 2 3 4 5 6 7 8 9 10 11 12 13 14 15 16 17 18 19 20 21 22 23 24 25 26 27 28 29 30 31 32
000
ASUS44 KLZK 270705
RWRLZK

WEATHER ROUNDUP FOR ARKANSAS
NATIONAL WEATHER SERVICE LITTLE ROCK AR
200 AM CDT SAT MAY 27 2017

NOTE: "FAIR" INDICATES FEW OR NO CLOUDS BELOW 12,000 FEET WITH NO
SIGNIFICANT WEATHER AND/OR OBSTRUCTIONS TO VISIBILITY.

ARZ001-003-010-029-270800-
NORTHWEST ARKANSAS

CITY           SKY/WX    TMP DP  RH WIND       PRES   REMARKS
FAYETTEVILLE   MOCLDY    75  73  93 S3        29.84S
FORT SMITH     PTCLDY    76  71  85 E3        29.80F
HARRISON       CLOUDY    73  71  93 CALM      29.85F THUNDER
BENTONVILLE    PTCLDY    75  70  83 S3        29.84F
ROGERS         CLOUDY    73  70  90 SE5       29.84F
SILOAM SPGS    CLOUDY    73  68  83 S6        29.83S
HIGHFILL       MOCLDY    75  72  90 S5        29.84S
$$

ARZ004-005-016-270800-
NORTH CENTRAL ARKANSAS

CITY           SKY/WX    TMP DP  RH WIND       PRES   REMARKS
BATESVILLE     MOCLDY    75  70  83 S8        29.84F
FLIPPIN        CLOUDY    73  66  78 SE3       29.80F
MTN HOME       CLOUDY    72  70  93 SE3       29.82F
$$

ARZ040-041-270800-
WEST CENTRAL ARKANSAS

CITY           SKY/WX    TMP DP  RH WIND       PRES   REMARKS
MENA           MOCLDY    79  79 100 SW3       29.87S
MOUNT IDA      MOCLDY    78  72  81 CALM      29.83F
$$

ARZ009-017-025-026-028-270800-
NORTHEAST ARKANSAS

CITY           SKY/WX    TMP DP  RH WIND       PRES   REMARKS
JONESBORO      MOCLDY    77  69  76 SW10      29.85F
NEWPORT        CLOUDY    75  71  87 S13       29.83F
WALNUT RIDGE   CLOUDY    72  66  83 CALM      29.84F
BLYTHEVILLE    CLOUDY    75  70  84 SW9       29.87F
$$

ARZ022-023-033-042-044-270800-
CENTRAL ARKANSAS

CITY           SKY/WX    TMP DP  RH WIND       PRES   REMARKS
LITTLE ROCK    MOCLDY    74  73  97 S7        29.85F
N LITTLE ROCK    N/A     75  72  90 S7        29.84F
JACKSONVILLE   MOCLDY    75  73  92 S6        29.84F
CONWAY           N/A     77  73  88 S10       29.82S
SEARCY         MOCLDY    74  72  93 S6        29.86F
HOT SPRINGS    CLOUDY    78  74  87 S7        29.86F
RUSSELLVILLE   CLEAR     73  71  93 CALM      29.82R
CLINTON        CLOUDY    70  70 100 CALM      29.86R FOG
$$

ARZ036-270800-
EAST ARKANSAS

CITY           SKY/WX    TMP DP  RH WIND       PRES   REMARKS
WEST MEMPHIS   PTCLDY    76  71  85 S10       29.87F
$$

ARZ050-053-066-070-073-270800-
SOUTHWEST ARKANSAS

CITY           SKY/WX    TMP DP  RH WIND       PRES   REMARKS
ARKADELPHIA    PTSUNNY   76  73  91 S6        29.86F
CAMDEN         PTCLDY    75  70  83 S8        29.88F
TEXARKANA      MOCLDY    76  74  93 S12       29.87F
EL DORADO      CLOUDY    74  72  93 S6        29.91S
DE QUEEN       CLOUDY    79  75  87 S7        29.83F
$$

ARZ056-057-069-270800-
SOUTHEAST ARKANSAS

CITY           SKY/WX    TMP DP  RH WIND       PRES   REMARKS
PINE BLUFF     PTCLDY    76  71  85 S13       29.88F
STUTTGART      MOCLDY    77  63  61 S13       29.88F
MONTICELLO     PTCLDY    76  71  85 S8        29.91F

$$






USA.gov is the U.S. government's official web portal to all federal, state and local government web resources and services.